Regional Weather Roundup
Issued by NWS Grand Forks, ND

Home | Current Version | Previous Version | Text Only | Print | Product List | Glossary Off
Versions: 1 2 3 4 5 6 7 8 9 10 11 12 13 14 15 16 17 18 19 20 21 22 23 24 25 26 27 28 29 30 31 32 33 34 35 36 37 38 39 40 41 42 43 44 45 46 47 48 49 50

000
ASUS43 KFGF 262010
RWRFGF
PRAIRIE TO PINES  WEATHER ROUNDUP
NATIONAL WEATHER SERVICE EASTERN NORTH DAKOTA/GRAND FORKS ND
300 PM CDT THU MAR 26 2015

 **SATELLITE DATA USED TO AUGMENT SKY COVER AT AUTOMATED STATIONS**
 *****  WEATHER ACROSS EASTERN NORTH DAKOTA  *****

CITY           SKY/WX    TMP DP  RH WIND       PRES   REMARKS
GRAND FORKS    FLURRIES  32  17  54 N17G26    30.28F WCI  21
GRAND FRKS AFB MIX PCPN  30  14  51 NE15      30.28S WCI  19
GRAND FRKS NWS   N/A     30 N/A N/A N10         N/A  WCI  21
DEVILS LAKE    CLOUDY    30  14  51 N7        30.26F WCI  23
FARGO          PTSUNNY   36  10  34 N20G25    30.24F
WAHPETON ARPT  CLEAR     34   9  35 N18G30    30.21F WCI  23
$$

 ***** WEATHER ACROSS CENTRAL AND WESTERN NORTH DAKOTA  *****

CITY           SKY/WX    TMP DP  RH WIND       PRES   REMARKS
BISMARCK       CLOUDY    37  22  54 E7        30.23F
MINOT          PTSUNNY   37  20  50 VRB3      30.22F
JAMESTOWN      MOSUNNY   36  11  35 NE13G21   30.22F
MINOT AFB      SUNNY     36  24  60 VRB3      30.22F
GARRISON         N/A     38  23  55 CALM      30.21S
WILLISTON      PTSUNNY   45  27  49 SE9       30.18F
DICKINSON      CLOUDY    36  30  79 VRB6      30.16S
HETTINGER      CLOUDY    35  29  78 SE8       30.18R
$$

 *****  OTHER AIRPORT OBSERVATIONS IN OUR AREA  *****

CITY           SKY/WX    TMP DP  RH WIND       PRES   REMARKS
WALHALLA       NOT AVBL
GRAFTON AIRPOR NOT AVBL
VALLEY CITY AR MOCLDY    32  10  40 NE20      30.23F WCI  20
CANDO          NOT AVBL
CAVALIER APRT  MIX PCPN  28  19  69 N12G18    30.31S WCI  18
GWINNER        PTCLDY    36  14  41 N14G24      N/A
ROLLA          CLOUDY    32  16  51 N12       30.26S WCI  23
 ***** THE ABOVE OBSERVATIONS ARE NON NWS ARE NOT QUALITY
       CONTROLLED AND MAY MIS-REPORT RAIN FOR SNOW...
$$

  *****  WEATHER ACROSS NORTHERN MINNESOTA  *****

CITY           SKY/WX    TMP DP  RH WIND       PRES   REMARKS
FLAG ISLAND    SUNNY     21   1  42 N8        30.24S WCI  12
WARROAD        SUNNY     25  10  54 E10       30.24F WCI  15
ROSEAU         SUNNY     28  10  47 N9G16     30.24F WCI  20
HALLOCK        PTSUNNY   30  16  55 N18       30.29F WCI  18
THF RVR FALLS  MOSUNNY   27  12  54 N14       30.25F WCI  15
BAUDETTE       SUNNY     23   6  48 N14G23    30.21F WCI  11
WASKISH        SUNNY     28  12  50 NW13      30.20S WCI  18
CROOKSTON      PTSUNNY   28  14  54 N17       30.28S WCI  16
$$
  *****  WEATHER ACROSS CENTRAL AND WEST MINNESOTA  *****

CITY           SKY/WX    TMP DP  RH WIND       PRES   REMARKS
FOSSTON        MOSUNNY   30  16  55 N18       30.22F WCI  18
BEMIDJI        SUNNY     28   3  34 NW14G20   30.17F WCI  17
PARK RAPIDS    SUNNY     30   3  31 N16G25    30.14F WCI  19
ELBOW LAKE     CLOUDY    29  15  54 N14       30.18F WCI  19
WADENA         PTSUNNY   28  12  50 N14G21    30.15F WCI  17
DETROIT LAKES  MOSUNNY   30  16  55 N17G23    30.19F WCI  18
MOORHEAD       MOSUNNY   34   7  32 N21       30.24F WCI  22
FERGUS FALLS   MOSUNNY   30   7  37 N14G23    30.21F WCI  20
MORRIS MN      CLOUDY    28  19  69 N18       30.18S WCI  16
STAPLES        MOSUNNY   30   9  40 N15G21    30.14F WCI  19
$$
  *****  WEATHER ELSEWHERE ACROSS MINNESOTA  *****

CITY           SKY/WX    TMP DP  RH WIND       PRES   REMARKS
DULUTH         MOSUNNY   30   6  36 N12G21    30.08S WCI  20
INTRNTL FALLS  SUNNY     26   6  42 N14       30.17F WCI  14
ELY            SUNNY     23   1  39 NW12G21   30.10F WCI  12
CLOQUET        SUNNY     30   1  29 N12G26    30.09S WCI  21
WHEATON        CLOUDY    30  16  55 N17G24    30.23F WCI  18
BRAINERD       SUNNY     32   8  36 N17G24    30.14F WCI  21
HIBBING        MOSUNNY   28   4  35 NW14G25   30.11F WCI  17
ALEXANDRIA     CLOUDY    28  17  63 N10       30.16S WCI  19
SAINT CLOUD    CLOUDY    31  15  52 N15       30.13S WCI  20
MINNEAPOLIS    CLOUDY    35  17  47 N14G23    30.10F
$$

  *****  WEATHER ACROSS SOUTH DAKOTA  *****

CITY           SKY/WX    TMP DP  RH WIND       PRES   REMARKS
SIOUX FALLS    CLOUDY    39  22  50 N10       30.14F
BROOKINGS      NOT AVBL
WATERTOWN      CLOUDY    35  18  49 N15       30.16F
HURON          CLOUDY    40  23  50 N10       30.18F
SISSETON         N/A     34  19  54 N17G28    30.19F WCI  23
ABERDEEN       CLOUDY    37  19  48 N16G24    30.22F
MITCHELL       LGT SNOW  37  28  70 N10       30.19S
PIERRE         CLOUDY    34  31  88 CALM      30.18F
MOBRIDGE       CLOUDY    39  25  57 E5        30.17F
RAPID CITY     PTSUNNY   49  29  46 N20       30.11R
$$

  *****  SOME WEATHER IN NEARBY STATES *****

CITY           SKY/WX    TMP DP  RH WIND       PRES   REMARKS
GLASGOW MT     CLOUDY    49  31  49 SE12      30.09F
GREAT FALLS MT MOSUNNY   64  36  35 SW24G33   30.07F
CHEYENNE WY    PTSUNNY   51  21  30 NW25G40   30.14F
SCOTTSBLUFF NE CLOUDY    53  32  44 NW25G37   30.14S
OMAHA NE       PTSUNNY   49  24  37 N14       30.12F
DES MOINES IA  PTSUNNY   46  22  38 N17G28    30.10F
DAVENPORT IA   SUNNY     45  23  42 NW22G29   30.02S
CHICAGO IL     CLOUDY    40  23  50 NW15      29.94F
EAU CLAIRE WI  CLOUDY    33  14  45 NW12G21   30.06S WCI  24
LA CROSSE WI   CLOUDY    37  21  52 NW13      30.05F
$$

  *****  SOME NATIONAL WEATHER *****

CITY           SKY/WX    TMP DP  RH WIND       PRES   REMARKS
LA GUARDIA NY  CLOUDY    55  51  86 S5        29.68F
RALEIGH NC     PTSUNNY   72  57  59 SW18G26   29.78F
ATLANTA GA     CLOUDY    73  50  44 SW7       29.85F
NEW ORLEANS LA LGT RAIN  63  59  87 SW8       29.85F
OKLAHOMA CITY  MOSUNNY   59  29  31 N18       30.17F
ALBUQUERQUE NM MOSUNNY   57  19  22 W5        30.29F
SALT LAKE CITY MOSUNNY   56  24  29 NW9       30.38F
LOS ANGELES CA SUNNY     77  53  43 W12       30.07F
BOISE ID       SUNNY     58  38  47 VRB5      30.38F
SEATTLE WA     MOSUNNY   65  51  60 CALM      30.26F
$$

*** WEATHER ACROSS MANITOBA...SASKATCHEWAN AND ONTARIO ***
                ***ONTARIO***

CITY           SKY/WX    TMP DP  RH WIND       PRES   REMARKS
GERALDTON      MOSUNNY   16  -2  45 N14G21    30.03R WCI   1
THUNDER BAY    MOSUNNY   25   5  42 NW9G23    30.10S WCI  15
SIOUX LOOKOUT  MOSUNNY   18   1  49 N14       30.17F WCI   4
TORONTO        CLOUDY    41  32  70 W10       29.76S
BIG TROUT LK   SUNNY     14  -8  37 NW12G18   30.22R WCI   0
PICKLE LAKE    MOSUNNY   18  -2  41 VRB6      30.13R WCI   9
DRYDEN         SUNNY     19  -2  38 N10G17    30.18F WCI   8
KENORA         SUNNY     23   0  36 N10G21    30.22F WCI  12
$$
                *** MANITOBA***

CITY           SKY/WX    TMP DP  RH WIND       PRES   REMARKS
BRANDON        MOSUNNY   28  19  69 NE6       30.30F WCI  22
DAUPHIN        CLOUDY    27  19  74 NE10      30.31F WCI  17
ISLAND LAKE    SUNNY     19  -4  35 NW9       30.31S WCI   9
PILOT MOUND      N/A     28  19  69 N9          N/A  WCI  20
THE PAS        MOSUNNY   27  16  63 SE7       30.30F WCI  19
THOMPSON       SUNNY     23 -13  20 CALM      30.31F
WINNIPEG       MOSUNNY   25  10  54 N14       30.34S WCI  13
LYNN LAKE      SUNNY     23  -4  30 S6        30.23F WCI  16
GILLAM         SUNNY     18   0  45 W9        30.32F WCI   6
$$
                ***SASKATCHEWAN***

CITY           SKY/WX    TMP DP  RH WIND       PRES   REMARKS
ESTEVAN        PTSUNNY   37  27  65 SE7       30.20F
KINDERSLEY     CLOUDY    46  36  66 S10       30.05S
LLOYDMINSTER   CLOUDY    36  27  69 SE9       30.03F
PRINCE ALBERT  PTSUNNY   36  21  55 SE9       30.18F
REGINA         CLOUDY    36  28  75 SE14      30.18F
YORKTON        SUNNY     32  19  59 E8        30.24F WCI  25
N. BATTLEFORD  CLOUDY    36  30  80 SE12      30.11
LA RONGE       MOSUNNY   34  21  60 E8        30.16F
SASKATOON      CLOUDY    41  27  56 S15       30.14F
SWIFT CURRENT  CLOUDY    48  28  46 S12G17    30.04F
$$
NOTE: THESE ARE AUTOMATED STATIONS WITH LIMITED QUALITY CONTROL
      "FAIR" INDICATES FEW OR NO CLOUDS BELOW 12,000 FEET WITH NO
      SIGNIFICANT WEATHER AND/OR OBSTRUCTIONS TO VISIBILITY.
      SKY/WX - SKY CONDITION AND SIGNIFICANT WEATHER.
      TMP - AIR TEMPERATURE.    DP   - DEWPOINT TEMPERATURE.
      RH  - RELATIVE HUMIDITY.  PRES - PRESSURE.
      HX  - HEAT INDEX.         WCI  - WIND CHILL INDEX.
$


USA.gov is the U.S. government's official web portal to all federal, state and local government web resources and services.